#timestamp,LO_Frequency,Hit 
1505563215.4,286047016.8,N
1505563235.2,286047014.9,N
1505563255.0,286047015.0,N
1505563255.9,286047015.0,N
1505563275.8,286047014.4,P
1505563295.6,286047003.8,N
1505563315.4,286047004.2,N
1505563335.3,286047001.5,N
1505563355.1,286047002.2,N
1505563356.0,286047002.2,N
1505563375.8,286047001.1,N
1505563395.7,286047004.1,N
1505563415.5,286047005.7,N
1505563435.8,286047002.4,N
1505563455.6,286047002.1,N
1505563475.5,286047001.5,N
1505563495.3,286046999.8,N
1505563515.1,286047003.7,N
1505563535.9,286047001.3,N
1505563555.7,286047001.1,N
1505563575.5,286047001.1,N
1505563595.4,286046997.0,N
1505563615.2,286046999.5,N
1505563635.0,286046997.7,N
1505563635.9,286046997.7,N
1505563655.8,286046995.0,N
1505563675.6,286046996.1,N
1505563695.4,286046996.7,N
1505563715.3,286046998.5,N
1505563735.1,286046996.8,N
1505563736.0,286046996.8,N
1505563755.8,286046996.3,N
1505563775.6,286046997.8,N
1505563795.5,286046995.6,N
1505563815.3,286046994.9,N
1505563835.1,286046995.2,N
1505563855.9,286046995.6,N
1505563875.7,286046997.2,N
1505563895.5,286046996.8,N
1505563915.4,286046997.0,N
1505563935.2,286046998.4,N
1505563955.0,286047001.2,N
1505563955.9,286047001.2,N
1505563975.8,286046999.2,N
1505563995.6,286046998.5,N
1505564015.4,286047000.2,N
1505564035.3,286047003.2,N
1505564055.1,286047002.0,N
1505564056.0,286047002.0,N
1505564075.8,286047001.1,N
1505564095.7,286047004.2,N
1505564115.5,286047002.4,N
1505564135.3,286047002.0,N
1505564155.1,286046998.9,N
1505564175.9,286046999.0,N
1505564195.7,286046998.3,N
1505564215.5,286047002.6,N
1505564235.4,286046999.7,N
1505564255.2,286046998.9,N
1505564275.0,286046996.8,N
1505564275.9,286046996.8,N
1505564295.8,286047000.2,N
1505564315.6,286046998.9,N
1505564335.4,286046998.6,N
1505564355.3,286046999.0,N
1505564375.1,286046997.2,N
1505564376.0,286046997.2,N
1505564395.8,286047000.9,N
1505564415.7,286047004.2,N
1505564435.5,286047003.1,N
1505564455.3,286047006.0,N
1505564475.2,286047007.6,P
1505564495.9,286047005.2,N
1505564515.7,286047003.6,N
1505564535.6,286047003.0,N
1505564555.4,286047002.2,N
1505564575.2,286047002.6,N
1505564595.0,286046998.3,N
1505564596.0,286046998.3,N
1505564615.8,286046997.0,N
1505564635.6,286046996.9,N
1505564655.4,286047001.3,N
1505564675.3,286047001.1,N
1505564695.1,286046997.9,N
1505564715.8,286046996.2,N
1505564735.7,286046994.1,N
1505564755.5,286046995.8,N
1505564775.3,286046992.8,N
1505564795.2,286046989.7,N
1505564815.9,286046992.0,N
1505564835.7,286046993.9,N
1505564855.6,286046992.0,N
1505564875.4,286046992.1,N
1505564895.2,286046992.4,N
1505564915.0,286046992.0,N
1505564915.9,286046992.0,N
1505564935.8,286046992.8,N
1505564955.6,286046992.7,N
1505564975.4,286046990.0,N
1505564995.3,286046988.6,N
1505565015.1,286046993.5,N
1505565035.8,286046997.8,N
1505565055.7,286046994.2,N
1505565075.5,286046993.6,N
1505565095.3,286046993.4,N
1505565115.2,286046994.0,N
1505565135.9,286046991.2,N
1505565155.7,286046993.2,N
1505565175.6,286046988.6,P
1505565195.4,286046995.6,N
1505565215.2,286046999.4,N
1505565235.1,286046998.3,N
1505565236.0,286046998.3,N
1505565255.8,286047000.1,N
1505565275.6,286046998.1,N
1505565295.5,286047000.0,N
1505565315.3,286047000.1,N
1505565335.1,286047000.3,N
1505565355.8,286047001.1,N
1505565375.7,286047000.1,N
1505565395.5,286047001.2,N
1505565415.3,286047000.8,N
1505565435.2,286046998.1,N
1505565455.9,286046998.5,N
1505565475.7,286047000.3,N
1505565495.6,286046998.7,N
1505565515.4,286046999.1,N
1505565535.2,286047001.9,N
1505565555.1,286046999.9,N
1505565556.0,286046999.9,N
1505565575.8,286046998.6,N
1505565595.6,286046998.2,N
1505565615.4,286046998.5,N
1505565635.3,286046999.6,N
1505565655.1,286046997.7,N
1505565675.8,286046999.3,N
1505565695.7,286047002.3,N
1505565715.5,286047002.3,N
1505565735.3,286047002.2,N
1505565755.2,286046999.9,N
1505565775.9,286046998.9,N
1505565795.7,286046995.7,P
1505565815.6,286046995.9,N
1505565835.4,286046995.7,N
1505565855.2,286046997.5,N
1505565875.1,286046993.7,P
1505565876.0,286046993.7,P
1505565895.8,286046998.7,N
1505565915.6,286046999.0,N
1505565935.5,286046997.0,N
1505565955.3,286046999.4,N
1505565975.1,286046998.3,N
1505565995.9,286046997.6,N
1505566015.7,286046998.5,N
1505566035.5,286046998.2,N
1505566055.4,286046999.3,N
1505566075.2,286046999.0,N
1505566095.0,286047000.1,N
1505566095.9,286047000.1,N
1505566115.8,286046998.2,N
1505566135.6,286047001.2,N
1505566155.4,286047002.6,N
1505566175.2,286047000.0,N
1505566195.1,286046998.2,N
1505566196.0,286046998.2,N
1505566215.8,286047000.8,N
1505566235.6,286047000.1,N
1505566255.5,286047001.5,N
1505566275.3,286046998.7,N
1505566295.1,286046998.8,N
1505566315.9,286047000.7,N
1505566335.7,286047000.0,N
1505566355.5,286046999.7,N
1505566375.4,286047002.3,N
1505566395.2,286047001.4,N
1505566415.0,286047004.2,N
1505566415.9,286047004.2,N
1505566435.8,286046999.7,N
1505566455.6,286047000.3,N
1505566475.4,286047003.7,N
1505566495.2,286047001.7,N
1505566515.1,286047005.6,P
1505566516.0,286047005.6,N
1505566535.8,286047005.8,N
1505566555.7,286047003.5,N
1505566575.5,286047001.8,N
1505566595.3,286047002.4,N
1505566615.1,286047002.3,N
1505566635.9,286047000.5,N
1505566655.7,286046998.2,N
1505566675.5,286047001.1,N
1505566695.4,286046998.9,N
1505566715.2,286046999.5,N
1505566735.0,286046999.6,N
1505566735.9,286046999.6,N
1505566755.8,286046999.4,N
1505566775.6,286046997.8,N
1505566795.4,286046997.9,N
